IRIDIUM 106 1 41917U 17003A 26104.39683088 .00000059 00000+0 14059-4 0 9997 2 41917 86.3926 115.2323 0002677 92.6111 267.5391 14.34217621484063 IRIDIUM 103 1 41918U 17003B 26104.38414519 .00000079 00000+0 21015-4 0 9990 2 41918 86.3925 115.1376 0002125 97.8689 262.2748 14.34217682484082 IRIDIUM 109 1 41919U 17003C 26104.39048927 .00000035 00000+0 54229-5 0 9994 2 41919 86.3928 115.1934 0002252 92.6862 267.4592 14.34217625484051 IRIDIUM 102 1 41920U 17003D 26104.42854459 -.00000017 00000+0 -13098-4 0 9995 2 41920 86.3929 115.1023 0002216 89.8589 270.2861 14.34217106484142 IRIDIUM 105 1 41921U 17003E 26104.38980297 .00000085 00000+0 23210-4 0 9991 2 41921 86.3925 83.5460 0002237 88.8180 271.3272 14.34398151485993 IRIDIUM 104 1 41922U 17003F 26104.09238546 .00000067 00000+0 16934-4 0 9998 2 41922 86.3924 115.2845 0002004 92.9556 267.1869 14.34218111484089 IRIDIUM 114 1 41923U 17003G 26104.58710942 .00000053 00000+0 11744-4 0 9997 2 41923 86.3926 115.0610 0002136 94.7303 265.4137 14.34217762484132 IRIDIUM 108 1 41924U 17003H 26104.40609176 .00000091 00000+0 25286-4 0 9993 2 41924 86.3919 83.4306 0002270 84.3365 275.8090 14.34218607485961 IRIDIUM 112 1 41925U 17003J 26104.43488709 .00000016 00000+0 -13091-5 0 9994 2 41925 86.3926 114.9696 0002030 91.8298 268.3130 14.34217520484137 IRIDIUM 111 1 41926U 17003K 26104.42220213 .00000003 00000+0 -61421-5 0 9994 2 41926 86.3927 115.0441 0002154 93.4369 266.7073 14.34217406484112 IRIDIUM 113 1 42803U 17039A 26103.98355483 .00000003 00000+0 -61374-5 0 9993 2 42803 86.4005 349.0186 0001792 85.1690 274.9711 14.34217738461980 IRIDIUM 123 1 42804U 17039B 26104.51341420 .00000005 00000+0 -51681-5 0 9992 2 42804 86.4013 20.2413 0002158 88.9869 271.1574 14.34217618460822 IRIDIUM 120 1 42805U 17039C 26104.60513015 .00000079 00000+0 21071-4 0 9993 2 42805 86.3999 348.5502 0002317 84.2798 275.8662 14.34217892462068 IRIDIUM 115 1 42806U 17039D 26104.40353785 .00000227 00000+0 61352-4 0 9999 2 42806 86.4536 348.7545 0002442 90.6810 269.4671 14.43279798465066 IRIDIUM 118 1 42807U 17039E 26104.12651861 .00000169 00000+0 53288-4 0 9999 2 42807 86.4018 20.4012 0002149 85.5179 274.6262 14.34217988460769 IRIDIUM 117 1 42808U 17039F 26104.49438606 .00000146 00000+0 45146-4 0 9999 2 42808 86.4017 20.2058 0002235 88.9596 271.1856 14.34218551460840 IRIDIUM 126 1 42809U 17039G 26104.51975477 -.00000121 00000+0 -50439-4 0 9991 2 42809 86.4012 20.2453 0001952 87.0974 273.0445 14.34216347460824 IRIDIUM 124 1 42810U 17039H 26104.33745160 .00000249 00000+0 68072-4 0 9998 2 42810 86.4472 317.0769 0002242 89.4269 270.7189 14.43292388465901 IRIDIUM 128 1 42811U 17039J 26104.58026335 .00000097 00000+0 27722-4 0 9990 2 42811 86.3973 51.7305 0002454 84.7741 275.3735 14.34218289460869 IRIDIUM 121 1 42812U 17039K 26104.46903046 .00000175 00000+0 55339-4 0 9993 2 42812 86.4018 20.2939 0002296 83.6505 276.4952 14.34214823460699 IRIDIUM 133 1 42955U 17061A 26104.61197499 .00000032 00000+0 43072-5 0 9994 2 42955 86.3974 51.8334 0002264 87.0669 273.0785 14.34218113445663 IRIDIUM 100 1 42956U 17061B 26104.60563314 .00000057 00000+0 13185-4 0 9995 2 42956 86.3972 51.7561 0002282 87.2498 272.8959 14.34218162445669 IRIDIUM 122 1 42957U 17061C 26104.15530915 .00000111 00000+0 32723-4 0 9997 2 42957 86.3971 51.9443 0002234 87.7743 272.3708 14.34218618445602 IRIDIUM 129 1 42958U 17061D 26104.59929255 .00000164 00000+0 51354-4 0 9994 2 42958 86.3972 51.8252 0001977 82.2905 277.8516 14.34218031445688 IRIDIUM 119 1 42959U 17061E 26104.56757773 .00000013 00000+0 -25091-5 0 9990 2 42959 86.3973 51.8340 0002133 88.1712 271.9728 14.34217352445690 IRIDIUM 107 1 42960U 17061F 26104.58661695 .00000160 00000+0 50233-4 0 9998 2 42960 86.3974 51.8469 0002368 92.5212 267.6255 14.34219280445700 IRIDIUM 132 1 42961U 17061G 26104.59294728 .00000108 00000+0 31359-4 0 9999 2 42961 86.3972 51.8241 0002291 87.6474 272.4984 14.34216769445709 IRIDIUM 136 1 42962U 17061H 26104.55489322 .00000190 00000+0 60863-4 0 9995 2 42962 86.3975 51.8463 0002249 88.9276 271.2177 14.34217122445712 IRIDIUM 139 1 42963U 17061J 26104.56123611 .00000135 00000+0 41281-4 0 9995 2 42963 86.3973 51.9047 0002381 87.0271 273.1197 14.34217301445725 IRIDIUM 125 1 42964U 17061K 26104.54854954 -.00000034 00000+0 -19129-4 0 9991 2 42964 86.3974 51.9702 0001939 100.3423 259.7992 14.34217476445738 IRIDIUM 135 1 43070U 17083A 26104.38313922 .00000129 00000+0 39035-4 0 9992 2 43070 86.4003 348.6930 0002209 85.3089 274.8359 14.34218019435009 IRIDIUM 138 1 43071U 17083B 26104.40850850 .00000049 00000+0 10398-4 0 9994 2 43071 86.4024 348.3687 0001793 88.8827 271.2574 14.34218088434997 IRIDIUM 116 1 43072U 17083C 26104.58610253 .00000085 00000+0 23275-4 0 9993 2 43072 86.4002 348.5949 0002446 83.9161 276.2313 14.34217508435050 IRIDIUM 130 1 43073U 17083D 26104.41485211 .00000111 00000+0 32749-4 0 9996 2 43073 86.4012 348.9353 0002395 89.5518 270.5953 14.34217236434971 IRIDIUM 151 1 43074U 17083E 26104.59878712 .00000119 00000+0 35593-4 0 9996 2 43074 86.4005 348.6460 0002237 83.9250 276.2201 14.34217840435023 IRIDIUM 134 1 43075U 17083F 26104.42753731 -.00000002 00000+0 -76395-5 0 9991 2 43075 86.4002 348.7243 0002161 87.6430 272.5013 14.34217569434968 IRIDIUM 137 1 43076U 17083G 26104.44022577 .00000170 00000+0 53502-4 0 9999 2 43076 86.4010 348.8109 0002447 74.7487 285.3979 14.34217988435033 IRIDIUM 141 1 43077U 17083H 26104.43387897 -.00000021 00000+0 -14586-4 0 9994 2 43077 86.3999 348.6475 0001967 84.4848 275.6572 14.34217596435034 IRIDIUM 153 1 43078U 17083J 26104.31628882 .00000018 00000+0 -63426-6 0 9998 2 43078 86.3947 317.1946 0001855 92.3975 267.7433 14.34217926436123 IRIDIUM 131 1 43079U 17083K 26104.14211981 .00000010 00000+0 -33394-5 0 9990 2 43079 86.4006 348.9510 0001977 83.5390 276.6030 14.34217753434924 IRIDIUM 144 1 43249U 18030A 26104.60170663 .00000182 00000+0 57823-4 0 9995 2 43249 86.3945 317.0062 0002272 86.6629 273.4827 14.34217984421023 IRIDIUM 149 1 43250U 18030B 26104.60804894 .00000450 00000+0 15368-3 0 9992 2 43250 86.3948 316.9713 0002053 87.5424 272.6007 14.34218064421042 IRIDIUM 157 1 43251U 18030C 26104.13869700 .00000177 00000+0 55966-4 0 9993 2 43251 86.3950 317.2194 0002140 88.0975 272.0466 14.34218275420953 IRIDIUM 140 1 43252U 18030D 26104.29726172 .00000016 00000+0 -13640-5 0 9993 2 43252 86.3947 317.1654 0002077 89.1690 270.9744 14.34217683421033 IRIDIUM 145 1 43253U 18030E 26104.56365307 .00000176 00000+0 55615-4 0 9996 2 43253 86.3949 317.0267 0002469 86.1465 274.0013 14.34218311421007 IRIDIUM 146 1 43254U 18030F 26103.98647445 .00000141 00000+0 43316-4 0 9995 2 43254 86.3950 317.2806 0002238 86.9127 273.2325 14.34218725420935 IRIDIUM 148 1 43255U 18030G 26104.58267461 .00000173 00000+0 54888-4 0 9990 2 43255 86.3951 317.0734 0002143 84.7164 275.4276 14.34214803421053 IRIDIUM 142 1 43256U 18030H 26104.34165012 .00000058 00000+0 13677-4 0 9997 2 43256 86.3943 317.0655 0002392 87.0454 273.1015 14.34222108420985 IRIDIUM 150 1 43257U 18030J 26104.30994741 .00000069 00000+0 17476-4 0 9996 2 43257 86.3951 317.1930 0002219 89.0100 271.1350 14.34217007421006 IRIDIUM 143 1 43258U 18030K 26104.29092001 .00000164 00000+0 51506-4 0 9991 2 43258 86.3953 317.2910 0002309 87.6504 272.4957 14.34217126420930 IRIDIUM 161 1 43478U 18047C 26104.38462105 .00000139 00000+0 35403-4 0 9999 2 43478 86.4446 115.1566 0002045 86.8287 273.3148 14.43280746415934 IRIDIUM 152 1 43479U 18047D 26104.54271077 .00000022 00000+0 65341-6 0 9991 2 43479 86.3924 114.9508 0002035 92.2405 267.9024 14.34217546413365 IRIDIUM 147 1 43480U 18047E 26104.54905355 .00000030 00000+0 36068-5 0 9998 2 43480 86.3923 114.9524 0002363 90.0579 270.0888 14.34217758413364 IRIDIUM 110 1 43481U 18047F 26104.55539523 .00000015 00000+0 -16585-5 0 9996 2 43481 86.3929 115.0397 0001798 89.7741 270.3661 14.34217573413354 IRIDIUM 162 1 43482U 18047G 26104.30898716 .00000063 00000+0 12738-4 0 9999 2 43482 86.4446 115.0800 0002305 93.8683 266.2782 14.43278625415912 IRIDIUM 160 1 43569U 18061A 26104.29192685 .00000044 00000+0 84728-5 0 9999 2 43569 86.3923 83.5133 0002168 85.3389 274.8054 14.34217615404211 IRIDIUM 166 1 43570U 18061B 26104.38706737 .00000122 00000+0 36560-4 0 9997 2 43570 86.3920 83.4247 0002395 87.6586 272.4884 14.34213502404251 IRIDIUM 158 1 43571U 18061C 26104.42511981 .00000066 00000+0 16458-4 0 9999 2 43571 86.3921 83.4187 0002186 91.9997 268.1450 14.34218207404223 IRIDIUM 165 1 43572U 18061D 26104.38071970 .00000121 00000+0 36226-4 0 9991 2 43572 86.3922 83.4823 0002404 87.4018 272.7453 14.34218890404243 IRIDIUM 155 1 43573U 18061E 26104.41243635 .00000043 00000+0 83962-5 0 9998 2 43573 86.3921 83.3414 0002323 91.5071 268.6391 14.34217667404216 IRIDIUM 154 1 43574U 18061F 26104.39340943 .00000191 00000+0 61170-4 0 9996 2 43574 86.3924 83.4800 0002318 85.1723 274.9737 14.34217274404260 IRIDIUM 163 1 43575U 18061G 26104.30460073 .00000079 00000+0 21056-4 0 9999 2 43575 86.3923 83.4342 0002152 90.4769 269.6673 14.34214140404221 IRIDIUM 156 1 43576U 18061H 26104.41877778 .00000043 00000+0 81171-5 0 9992 2 43576 86.3920 83.3937 0002384 91.0983 269.0486 14.34217637404231 IRIDIUM 164 1 43577U 18061J 26104.39975097 .00000020 00000+0 10962-6 0 9999 2 43577 86.3923 83.4412 0002247 83.5167 276.6285 14.34217396404279 IRIDIUM 159 1 43578U 18061K 26104.29826804 .00000103 00000+0 29660-4 0 9995 2 43578 86.3917 83.4214 0002124 86.5566 273.5873 14.34215951404222 IRIDIUM 180 1 43922U 19002A 26104.50707143 .00000016 00000+0 -11772-5 0 9992 2 43922 86.4019 20.2049 0002103 82.7186 277.4248 14.34217618379869 IRIDIUM 176 1 43923U 19002B 26104.13341276 .00000533 00000+0 80566-4 0 9992 2 43923 86.6139 20.3133 0002606 84.1332 276.0182 14.72254237389826 IRIDIUM 168 1 43924U 19002C 26104.50072902 .00000060 00000+0 14330-4 0 9992 2 43924 86.4020 20.2829 0002182 86.4662 273.6783 14.34217479379841 IRIDIUM 173 1 43925U 19002D 26104.48804312 .00000172 00000+0 54217-4 0 9990 2 43925 86.4017 20.1797 0002145 88.1438 272.0004 14.34218632379829 IRIDIUM 169 1 43926U 19002E 26104.60871923 .00000192 00000+0 56179-4 0 9998 2 43926 86.4228 51.7610 0002514 100.9401 259.2081 14.38608113381085 IRIDIUM 172 1 43927U 19002F 26104.48170020 .00000027 00000+0 24295-5 0 9997 2 43927 86.4018 20.1901 0002089 82.5930 277.5504 14.34217902379836 IRIDIUM 175 1 43928U 19002G 26104.57479897 .00000225 00000+0 60362-4 0 9996 2 43928 86.4502 317.1310 0005357 79.8752 280.3053 14.43588753389804 IRIDIUM 171 1 43929U 19002H 26104.46267337 .00000150 00000+0 46670-4 0 9992 2 43929 86.4026 20.4971 0002348 85.4241 274.7223 14.34218661379821 IRIDIUM 170 1 43930U 19002J 26104.47943126 .00000617 00000+0 93878-4 0 9992 2 43930 86.6132 20.1716 0002251 80.2841 279.8630 14.72250740389880 IRIDIUM 167 1 43931U 19002K 26104.10748868 .00000075 00000+0 19600-4 0 9998 2 43931 86.4017 20.3682 0002541 88.2309 271.9178 14.34217803379772 IRIDIUM 181 1 56726U 23068S 26104.46207167 .00000155 00000+0 40057-4 0 9991 2 56726 86.4459 83.4286 0002322 79.9133 280.2330 14.43311202153240 IRIDIUM 177 1 56727U 23068T 26104.43913490 .00000675 00000+0 85416-4 0 9997 2 56727 86.2010 359.0654 0002160 89.1824 270.9645 14.80216841156931 IRIDIUM 174 1 56728U 23068U 26104.46707699 .00000556 00000+0 84321-4 0 9995 2 56728 86.6147 20.3179 0002143 85.3309 274.8153 14.72260368156643 IRIDIUM 178 1 56729U 23068V 26104.56338770 .00000702 00000+0 88918-4 0 9996 2 56729 86.6544 51.9364 0002713 82.2241 277.9289 14.80233878156958 IRIDIUM 179 1 56730U 23068W 26104.28760167 .00000739 00000+0 93748-4 0 9993 2 56730 86.6766 60.8443 0002960 89.1634 270.9927 14.80233336156916